Hors Challenge

Le Trail De La Montagne Saint-Pierre à Lanaye (18.00 km)

dimanche 10 mars 2019

Vous pouvez trouver Le classement original sur : www.otopservices.be  
 
LE TRAIL DE LA MONTAGNE SAINT-PIERRE - LANAYE
DISTANCE : 18.12 km
dimanche 10 mars 2019
 
Place dos NOM Catégorie Pl/cat temps temps/km Vitesse
01:00:00              
1 787 BENJAMIN LEMPEREUR SENIOR H 1 01:24:17 04:39 12.90
2 857 MICKAEL PROES VETERAN 1 1 01:25:27 04:43 12.72
3 936 SIMON WILLAMME SENIOR H 2 01:26:26 04:46 12.58
4 818 OLIVIER MINY SENIOR H 3 01:27:01 04:48 12.49
5 793 PIERRE LEYENS VETERAN 1 2 01:27:31 04:50 12.42
6 877 RAPHAEL SCHMITS VETERAN 1 3 01:28:03 04:52 12.35
7 866 NICOLAS ROCK SENIOR H 4 01:28:26 04:53 12.29
8 722 DAVID GENDEBIEN VETERAN 1 4 01:28:36 04:53 12.27
9 634 PHILIPPE BRUNEEL VETERAN 1 5 01:29:16 04:56 12.18
10 905 LAURENT TROQUETTE SENIOR H 5 01:30:09 04:58 12.06
11 948 CLEMENT VAN BRUMMELEN SENIOR H 6 01:30:21 04:59 12.03
12 938 NICOLAS WYSOCKI SENIOR H 7 01:32:06 05:05 11.81
13 754 FABIAN HUSTINGS VETERAN 1 6 01:32:26 05:06 11.76
14 738 CHRISTIAN HAGELSTEIN VETERAN 1 7 01:32:38 05:07 11.74
15 922 CEDRIC VERHEES VETERAN 1 8 01:34:09 05:12 11.55
16 770 MICHEL KRICFALUSI VÉTÉRAN 2 1 01:34:15 05:12 11.54
17 714 SIMON FOGUENNE SENIOR H 8 01:34:18 05:12 11.53
18 691 PASCAL DEWALLEF VETERAN 1 9 01:34:24 05:13 11.52
19 846 VINCENT PINSART VETERAN 1 10 01:34:29 05:13 11.51
20 679 JEAN-MARIE DELLEUR VÉTÉRAN 2 2 01:34:59 05:14 11.45
21 762 GILLES JOCKIN SENIOR H 9 01:35:18 05:16 11.41
22 601 CORENTIN AERTS SENIOR H 10 01:35:20 05:16 11.40
23 692 BENJAMIN DEWANDELEER SENIOR H 11 01:35:21 05:16 11.40
24 672 THOMAS DEDRY SENIOR H 12 01:35:40 05:17 11.37
25 604 STEVE ALBERT VETERAN 1 11 01:35:42 05:17 11.36
26 721 WALTER GEELEN SENIOR H 13 01:35:48 05:17 11.35
27 663 JEAN-MARC DANIELS VÉTÉRAN 2 3 01:35:57 05:18 11.33
28 828 FRANCIS NICOLAS VÉTÉRAN 2 4 01:35:58 05:18 11.33
29 719 FABIO GALLO VÉTÉRAN 2 5 01:36:02 05:18 11.32
30 617 ALEX BONNI SENIOR H 14 01:36:02 05:18 11.32
31 842 JONATHAN PEREIRA TEIJELO SENIOR H 15 01:36:05 05:18 11.32
32 844 THIERRY PETITJEAN VETERAN 1 12 01:36:37 05:20 11.25
33 761 FRANÇOIS JOCKIN SENIOR H 16 01:36:58 05:21 11.21
34 809 CHRISTIAN MAYOMBO SENIOR H 17 01:37:52 05:24 11.11
35 906 XAVIER ULRICI SENIOR H 18 01:37:54 05:24 11.11
36 856 STEPHAN PONCELET VÉTÉRAN 2 6 01:37:56 05:24 11.10
37 819 QUENTIN MIZZI SENIOR H 19 01:38:04 05:25 11.09
38 641 DAMIEN CHARLIER SENIOR H 20 01:38:05 05:25 11.09
39 681 DANY DEMARET VETERAN 1 13 01:38:08 05:25 11.08
40 929 NICOLE WARNIER AINÉE 1 1 01:38:44 05:27 11.01
41 726 YANNICK GILDEMEESTER VETERAN 1 14 01:39:20 05:29 10.95
42 854 STEPHANE PIRSON VÉTÉRAN 2 7 01:39:21 05:29 10.94
43 843 THOM PETIT SENIOR H 21 01:39:36 05:30 10.92
44 875 BERNARD SCHMETZ VÉTÉRAN 2 8 01:39:54 05:31 10.88
45 708 ROLAND EVRARD SENIOR H 22 01:40:03 05:31 10.87
46 926 DAVID VROOMEN VETERAN 1 15 01:40:23 05:32 10.83
47 622 CEDRIC BOULTON SENIOR H 23 01:40:26 05:33 10.83
48 680 DAVID DELSEMME VETERAN 1 16 01:41:00 05:34 10.76
49 840 MAURICE PANARIELLO VETERAN 1 17 01:41:41 05:37 10.69
50 759 DAMIEN JENNES SENIOR H 24 01:42:06 05:38 10.65
51 910 MARI VAN DEN HOUT SENIOR H 25 01:42:38 05:40 10.59
52 872 CINDY RUTH AINÉE 1 2 01:42:39 05:40 10.59
53 949 PIERRE LECLERCQ VETERAN 1 18 01:42:39 05:40 10.59
54 749 ERIC HUBERT VÉTÉRAN 2 9 01:42:41 05:40 10.59
55 825 THIBAUT NEUTELINGS SENIOR H 26 01:42:47 05:40 10.58
56 659 JEREMY CROS SENIOR H 27 01:42:47 05:40 10.58
57 625 BENJAMIN BRANCART SENIOR H 28 01:42:49 05:40 10.57
58 847 HERVE PIOT SENIOR H 29 01:42:51 05:41 10.57
59 888 ROB SMITS VETERAN 1 19 01:43:15 05:42 10.53
60 607 CARMELO ARGENTO SENIOR H 30 01:43:32 05:43 10.50
61 812 GEOFFREY MEYER SENIOR H 31 01:43:33 05:43 10.50
62 865 SYLVAIN RITROVATO VETERAN 1 20 01:43:33 05:43 10.50
63 745 PHILIPPE HERION VÉTÉRAN 2 10 01:43:36 05:43 10.49
64 678 ELODIE DELLEUR SENIOR D 1 01:43:37 05:43 10.49
65 933 DAVID WEICKMANS SENIOR H 32 01:43:41 05:43 10.49
66 633 MICHAEL BROUWERS SENIOR H 33 01:43:41 05:43 10.49
67 777 YANNICK LECLERCQ SENIOR H 34 01:43:42 05:43 10.48
68 950 JORDAN FRANCOIS SENIOR H 35 01:43:42 05:43 10.48
69 771 SEBASTIEN LAKAILLE SENIOR H 36 01:43:48 05:44 10.47
70 701 YVES DUBUISSON SENIOR H 37 01:44:53 05:47 10.37
71 603 DENIS AGUDO SENIOR H 38 01:45:11 05:48 10.34
72 781 LUC LEINERS SENIOR H 39 01:45:15 05:48 10.33
73 752 WILLIAM HUET VÉTÉRAN 2 11 01:45:18 05:49 10.33
74 717 XAVIER FRANSSEN VETERAN 1 21 01:45:19 05:49 10.32
75 605 CHRISTOPHE ALLEAUME VÉTÉRAN 2 12 01:45:24 05:49 10.32
76 645 CHRISTIAN CLIEGNET SENIOR H 40 01:45:27 05:49 10.31
77 710 RUDY FERETTE VETERAN 1 22 01:45:38 05:50 10.29
78 611 BRUNO BALTHASAR SENIOR H 41 01:45:46 05:50 10.28
79 796 JEAN-LUC LOISEAU VÉTÉRAN 2 13 01:46:55 05:54 10.17
80 908 GERT VAN DEN EYNDEN VETERAN 1 23 01:47:33 05:56 10.11
81 845 MANU PIAZZA VETERAN 1 24 01:47:43 05:57 10.09
82 780 LYO LEGROS VETERAN 1 25 01:47:47 05:57 10.09
83 839 LAURA PACYNA SENIOR D 2 01:47:48 05:57 10.09
84 930 FRANCIS WATAR VETERAN 1 26 01:48:25 05:59 10.03
85 801 CINDY LOUVIAUX AINÉE 1 3 01:48:29 05:59 10.02
86 711 PATRICK FERNEZ VETERAN 1 27 01:48:35 06:00 10.01
87 898 JENNY TEN HAAF AINÉE 1 4 01:48:38 06:00 10.01
88 782 FRANÇOIS LEJEUNE SENIOR H 42 01:48:42 06:00 10.00
89 730 MARC GOMBOSO VETERAN 3 1 01:48:43 06:00 10.00
90 939 CÉDRIC XHONNEUX SENIOR H 43 01:48:44 06:00 10.00
91 790 NATHALIE OFFERMAN SENIOR D 3 01:48:56 06:01 9.98
92 674 ANNE DELCOMINETTE AINÉE 1 5 01:49:13 06:02 9.96
93 863 GAEL RICCIARELLI SENIOR H 44 01:49:28 06:02 9.93
94 915 PIERRE VANHAELEN SENIOR H 45 01:49:29 06:03 9.93
95 821 BORIS MOULET SENIOR H 46 01:49:38 06:03 9.92
96 694 LORENZO DI CARO SENIOR H 47 01:49:48 06:04 9.90
97 889 FERNANDO SOARES VETERAN 1 28 01:49:49 06:04 9.90
98 700 ALEXANDRE DORTU SENIOR H 48 01:49:56 06:04 9.89
99 811 FRÉDÉRIC MEERTENS VETERAN 1 29 01:49:58 06:04 9.89
100 813 JEAN-MARC MICHEL VÉTÉRAN 2 14 01:49:58 06:04 9.89
101 826 CHRISTOPHE NEVENS VETERAN 1 30 01:50:02 06:04 9.88
102 805 SAMUEL MAHY SENIOR H 49 01:50:07 06:05 9.87
103 824 FREDERIC NERI VETERAN 1 31 01:50:10 06:05 9.87
104 952 PHILIPPE JAMAR VÉTÉRAN 2 15 01:50:13 06:05 9.86
105 728 TOM GILIS SENIOR H 50 01:50:14 06:05 9.86
106 638 SYLVIE CANAVESE SENIOR D 4 01:50:16 06:05 9.86
107 689 JEAN-FRANCOIS DESADELEER VETERAN 1 32 01:50:30 06:06 9.84
108 858 PIERRE PROFITA SENIOR H 51 01:50:37 06:06 9.83
109 873 ARNAUD RUWET SENIOR H 52 01:50:53 06:07 9.81
110 885 CHRISTOPHE SIMONS SENIOR H 53 01:50:58 06:07 9.80
111 610 JULIEN BAJOT SENIOR H 54 01:51:07 06:08 9.78
112 702 LEON-MARIE DUPUIS VÉTÉRAN 2 16 01:51:21 06:09 9.76
113 931 INGRID WAUTERS AINÉE 1 6 01:51:21 06:09 9.76
114 699 ARNAUD DODEMONT SENIOR H 55 01:51:33 06:09 9.75
115 774 MICHEL LAVIGNE VÉTÉRAN 2 17 01:51:37 06:10 9.74
116 725 YANICK GIBULA SENIOR H 56 01:51:47 06:10 9.73
117 627 PHILIPPE BRAYEUR VETERAN 1 33 01:51:48 06:10 9.73
118 709 JEAN-MARC FAVEYTS VÉTÉRAN 2 18 01:52:12 06:12 9.69
119 724 PHILIPPE GHEURY VETERAN 1 34 01:52:36 06:13 9.66
120 841 THOMAS PEETERS SENIOR H 57 01:52:55 06:14 9.63
121 643 RACHEL CHARPENTIER AINÉE 1 7 01:53:01 06:14 9.62
122 894 CHRISTIAN STERCK VÉTÉRAN 2 19 01:53:12 06:15 9.60
123 640 STEPHANE CHAIDRON VÉTÉRAN 2 20 01:53:24 06:15 9.59
124 871 MIRKO RUGGIERI VETERAN 1 35 01:53:37 06:16 9.57
125 624 AURÉLIEN BOURSE SENIOR H 58 01:53:55 06:17 9.54
126 602 LORIAN AGNES SENIOR H 59 01:54:02 06:18 9.53
127 637 MARIE BURON AINÉE 1 8 01:54:11 06:18 9.52
128 670 NICO DE MARCHI VÉTÉRAN 2 21 01:54:18 06:18 9.51
129 855 DENIS PITON SENIOR H 60 01:54:21 06:19 9.51
130 632 JEAN-PAUL BROERS SENIOR H 61 01:54:30 06:19 9.50
131 823 ZEKHNINI NAJEM VETERAN 1 36 01:55:26 06:22 9.42
132 615 SANDRA BEURSKENS AINÉE 2 1 01:55:43 06:23 9.40
133 900 ROLAND TEN HAAF VÉTÉRAN 2 22 01:55:43 06:23 9.40
134 786 LUC LEMOINE VETERAN 1 37 01:55:47 06:23 9.39
135 913 VINCENT VANASCHEN VETERAN 1 38 01:55:50 06:24 9.39
136 614 SANDRINE BERTRUME AINÉE 1 9 01:56:21 06:25 9.34
137 836 SÉBASTIEN ORBAN SENIOR H 62 01:57:24 06:29 9.26
138 878 WILLY SCHROUFF SENIOR H 63 01:57:34 06:29 9.25
139 848 GATIEN PIRARD VETERAN 1 39 01:58:03 06:31 9.21
140 669 FABRICE DE GREGORIO VETERAN 1 40 01:58:09 06:31 9.20
141 951 GATIEN PIRARD VETERAN 1 41 01:58:19 06:32 9.19
142 606 MARCO ALONSO HERNANDEZ SENIOR H 64 01:58:38 06:33 9.16
143 816 OLIVIER MINGUET VETERAN 1 42 01:59:04 06:34 9.13
144 655 MICHAEL CORTIS VETERAN 1 43 01:59:04 06:34 9.13
145 928 XANDER WARNEZ SENIOR H 65 01:59:20 06:35 9.11
146 827 THOMAS NIBUS SENIOR H 66 01:59:21 06:35 9.11
147 886 ERIC SMEETS VÉTÉRAN 2 23 01:59:43 06:36 9.08
148 739 GEOFFREY HARDY SENIOR H 67 02:00:35 06:39 9.02
149 613 JÉRÔME BERODE VETERAN 1 44 02:00:40 06:40 9.01
150 869 STEPHANE ROYEN VETERAN 1 45 02:00:40 06:40 9.01
151 635 ALEXANDRE BRUWIER SENIOR H 68 02:00:43 06:40 9.01
152 768 ROB KONINGS VÉTÉRAN 2 24 02:00:51 06:40 9.00
153 860 VINCENT REIP SENIOR H 69 02:00:52 06:40 9.00
154 773 ARTHUR LATOUR SENIOR H 70 02:00:56 06:40 8.99
155 648 JEAN-PAUL COLLARD VETERAN 1 46 02:00:57 06:40 8.99
156 890 PHILIPPE SONNET SENIOR H 71 02:00:58 06:41 8.99
157 747 LUC HILDERSON VETERAN 3 2 02:01:00 06:41 8.99
158 687 FREDERIQUE DEPOUHON AINÉE 1 10 02:01:07 06:41 8.98
159 609 MAXIME BAIVERLIN VETERAN 1 47 02:01:19 06:42 8.96
160 852 CHRISTIAN PIROSON VETERAN 1 48 02:01:19 06:42 8.96
161 646 PAUL CLOQUETTE VETERAN 1 49 02:01:20 06:42 8.96
162 621 THOMAS BOUCHARD SENIOR H 72 02:01:41 06:43 8.94
163 861 THIMOTHÉE REMY SENIOR H 73 02:01:55 06:44 8.92
164 668 CÉDRIC DE COCK SENIOR H 74 02:02:12 06:45 8.90
165 766 DANIEL KLEINJANS SENIOR H 75 02:02:12 06:45 8.90
166 806 JEAN-CLAUDE MANDERRIER VÉTÉRAN 2 25 02:02:26 06:45 8.88
167 677 VINCENT DELHOUGNE VÉTÉRAN 2 26 02:02:47 06:47 8.86
168 838 OLIVIER OTE VETERAN 1 50 02:02:48 06:47 8.85
169 661 MATHIAS DALLE VETERAN 1 51 02:03:00 06:47 8.84
170 947 JOEL JEAN VÉTÉRAN 2 27 02:03:44 06:50 8.79
171 744 FRANK HEIJKERS VÉTÉRAN 2 28 02:03:53 06:50 8.78
172 767 NATHALIE KONINGS AINÉE 1 11 02:04:06 06:51 8.76
173 644 MAXIME CHAUVEHEID SENIOR H 76 02:04:37 06:53 8.72
174 799 DAMIEN LONNEUX VETERAN 1 52 02:04:54 06:54 8.71
175 734 BERNARD GREGOIRE VETERAN 1 53 02:05:25 06:55 8.67
176 864 MAXIME RIGAUX SENIOR H 77 02:05:27 06:55 8.67
177 636 NICK BRUYNINCKX SENIOR H 78 02:05:31 06:56 8.66
178 937 YOHAN WILMET SENIOR H 79 02:05:51 06:57 8.64
179 912 CHRISTIAN VAN LEEUW VETERAN 1 54 02:05:53 06:57 8.64
180 703 ANGÉLIQUE DURDURE AINÉE 1 12 02:05:58 06:57 8.63
181 820 SIMON GIL VETERAN 1 55 02:05:59 06:57 8.63
182 901 MICHEL THISSEN VÉTÉRAN 2 29 02:06:22 06:58 8.60
183 715 LOIC FRAIKIN SENIOR H 80 02:06:27 06:59 8.60
184 619 MARGAUX BOSSON SENIOR D 5 02:07:15 07:01 8.54
185 654 THIERRY CORIN VÉTÉRAN 2 30 02:07:25 07:02 8.53
186 896 ISABELLE STREIGNARD AINÉE 1 13 02:07:31 07:02 8.53
187 697 SANDRINE DINON AINÉE 1 14 02:08:00 07:04 8.49
188 746 FABIEN HERPERS VETERAN 1 56 02:08:07 07:04 8.49
189 683 FRANÇOIS-XAVIER DENIS VÉTÉRAN 2 31 02:08:14 07:05 8.48
190 868 ALICE ROUSSAUX AINÉE 1 15 02:08:43 07:06 8.45
191 748 FRANCOIS HOGGE SENIOR H 81 02:09:19 07:08 8.41
192 737 MARC HAGELSTEENS VETERAN 1 57 02:09:25 07:09 8.40
193 927 DAMIEN WALTHERY VETERAN 1 58 02:09:39 07:09 8.39
194 803 MANON MACKELS SENIOR D 6 02:09:41 07:09 8.38
195 775 SANDRA LECART AINÉE 1 16 02:10:00 07:10 8.36
196 688 FRANCK DEQUIEDT VÉTÉRAN 2 32 02:10:06 07:11 8.36
197 925 PIERRE VERJANS VETERAN 3 3 02:10:10 07:11 8.35
198 630 JEN BRISBOIS SENIOR D 7 02:10:11 07:11 8.35
199 834 DOROTHEE OLBRECHTS SENIOR D 8 02:10:12 07:11 8.35
200 626 CHRISTIAN BRASSELLE VETERAN 3 4 02:10:14 07:11 8.35
201 804 PHILIPPE MAGREMANNE VÉTÉRAN 2 33 02:11:14 07:15 8.28
202 639 DARIO CENGIAROTTI VETERAN 3 5 02:11:39 07:16 8.26
203 620 GAETAN BOTTIN VETERAN 1 59 02:11:48 07:16 8.25
204 800 ISABELLE LORQUET SENIOR D 9 02:11:51 07:17 8.25
205 916 RUDI VANHERCK VETERAN 1 60 02:11:51 07:17 8.25
206 802 JESSICA LUCATELLI SENIOR D 10 02:11:53 07:17 8.24
207 750 OLIVIER HUBERT VETERAN 1 61 02:11:54 07:17 8.24
208 893 VANESSA STALLENBERG AINÉE 1 17 02:11:54 07:17 8.24
209 760 LUDOVIC JOB SENIOR H 82 02:11:57 07:17 8.24
210 795 PHILIPPE LICOT VÉTÉRAN 2 34 02:12:40 07:19 8.20
211 740 BERNARD HAUGEN VETERAN 3 6 02:13:18 07:21 8.16
212 743 DAVID HEBRANS SENIOR H 83 02:13:44 07:23 8.13
213 735 THIERRY GROOTAERS VETERAN 1 62 02:14:11 07:24 8.10
214 690 BERNARD DEFRAGNE VÉTÉRAN 2 35 02:14:39 07:26 8.07
215 932 AUDREY WEGNEZ SENIOR D 11 02:14:49 07:26 8.06
216 772 CHANTAL LAMBERT-PACHEN AINÉE 1 18 02:14:52 07:27 8.06
217 649 JEAN-FRANÇOIS COLLE SENIOR H 84 02:15:10 07:28 8.04
218 822 BARBARA NADIN AINÉE 1 19 02:15:12 07:28 8.04
219 608 RAFIK BACCARI VETERAN 1 63 02:15:13 07:28 8.04
220 884 SARAH SIMON AINÉE 1 20 02:15:32 07:29 8.02
221 718 DAVID FRISON VETERAN 1 64 02:15:34 07:29 8.02
222 835 PASCAL OLIVIER VETERAN 1 65 02:15:35 07:29 8.02
223 815 JÉROME MIGNON SENIOR H 85 02:17:17 07:35 7.92
224 784 NATHALIE LEKEUX AINÉE 1 21 02:17:36 07:36 7.90
225 830 SOPHIE NIVARD SENIOR D 12 02:17:53 07:37 7.89
226 763 MARIE-JEANNE JODOGNE AINÉE 1 22 02:17:54 07:37 7.88
227 685 CHRISTIAN DENOISIEUX VÉTÉRAN 2 36 02:18:09 07:37 7.87
228 713 SERGE FILLOT VETERAN 1 66 02:18:16 07:38 7.86
229 658 CAROLINE CRANSVELD AINÉE 1 23 02:18:35 07:39 7.85
230 792 GERALD LEYENS SENIOR H 86 02:18:47 07:40 7.83
231 903 ANNE-MARIE TONEATTO AINÉE 2 2 02:18:52 07:40 7.83
232 758 MARC JAMSIN VÉTÉRAN 2 37 02:19:02 07:40 7.82
233 791 JEAN-LOUIS LERUTH VETERAN 1 67 02:19:47 07:43 7.78
234 874 HUGUES SAUDEMONT VETERAN 1 68 02:19:48 07:43 7.78
235 810 CHRISTELLE MEERTENS AINÉE 1 24 02:19:55 07:43 7.77
236 923 DOMINIQUE VERJANS VÉTÉRAN 2 38 02:20:00 07:44 7.77
237 660 ALEXANDRE CUTAIA SENIOR H 87 02:20:51 07:46 7.72
238 676 SEBASTIEN DELCOURT SENIOR H 88 02:21:07 07:47 7.70
239 837 JUAN-CARLOS ORTUNO VETERAN 1 69 02:21:40 07:49 7.67
240 832 DOMINIQUE NOEL AINÉE 1 25 02:21:42 07:49 7.67
241 684 VIRGINIE DENIS AINÉE 2 3 02:21:58 07:50 7.66
242 727 STEPHANE GILIS VETERAN 3 7 02:22:51 07:53 7.61
243 779 ANDRÉ LEGRAND VÉTÉRAN 2 39 02:23:07 07:54 7.60
244 731 KARIN GONSET AINÉE 2 4 02:23:07 07:54 7.60
245 642 DELPHINE CHARLIER SENIOR D 13 02:23:17 07:54 7.59
246 656 DAVID CRANINX SENIOR H 89 02:23:40 07:56 7.57
247 914 MURIELLE VANDERMEER SENIOR D 14 02:24:06 07:57 7.55
248 808 GERALDINE MASSART SENIOR D 15 02:24:26 07:58 7.53
249 785 JEAN-LUC LEMARCHAND VÉTÉRAN 2 40 02:24:28 07:58 7.53
250 880 MARTINE SERONVALLE AINÉE 2 5 02:24:29 07:58 7.53
251 817 CLAIRE MINIE AINÉE 1 26 02:24:44 07:59 7.51
252 851 FABIEN PIRLOTTE SENIOR H 90 02:26:15 08:04 7.43
253 712 JULIEN FILARDI SENIOR H 91 02:26:15 08:04 7.43
254 736 STELIO HADJIDIMITRIOU VÉTÉRAN 2 41 02:26:48 08:06 7.41
255 887 GERMAINE SMEETS AINÉE 1 27 02:27:33 08:09 7.37
256 897 CAROLINE TEHEUX AINÉE 1 28 02:27:35 08:09 7.37
257 742 STÉPHANIE HAVAR AINÉE 1 29 02:27:37 08:09 7.37
258 666 SOPHIE DANTINNE AINÉE 1 30 02:28:14 08:11 7.33
259 671 YVES DE TOFFOL VÉTÉRAN 2 42 02:29:18 08:14 7.28
260 867 CARINE ROI AINÉE 2 6 02:30:03 08:17 7.25
261 807 MARIE MARICHAL SENIOR D 16 02:30:04 08:17 7.25
262 935 VINCIANNE WIAME AINÉE 1 31 02:30:30 08:18 7.22
263 934 AUDREY WIAME SENIOR D 17 02:30:30 08:18 7.22
264 755 PERRINE JACRI SENIOR D 18 02:30:47 08:19 7.21
265 924 JEAN-BAPTISTE VERJANS SENIOR H 92 02:31:24 08:21 7.18
266 798 SOPHIA LOMONACO AINÉE 1 32 02:31:33 08:22 7.17
267 673 THIBAULT DEKETELAERE VETERAN 1 70 02:31:33 08:22 7.17
268 707 CARHERINE EVRARD SENIOR D 19 02:34:41 08:32 7.03
269 651 EMILIE COLLEYE SENIOR D 20 02:34:42 08:32 7.03
270 657 VIRGINIE CRANINX SENIOR D 21 03:08:09 10:23 5.78
271 883 RAFFAELE SIGISMONDI VETERAN 1 71 03:08:10 10:23 5.78
272 859 MATTI QUAEDVLIEG VÉTÉRAN 4 1 03:11:34 10:34 5.68
273 876 JOELLE SCHMETZ AINÉE 2 7 03:29:37 11:34 5.19
274 628 HENRI BREULHEID VETERAN 1 72 03:29:37 11:34 5.19